Location: Arclight Observatory
(36.5667°N, 87.3333°W)
Time: 11:39:59
(UTC-06:00)

Daily predictions for brighter satellites

Satellite Brightness Start Highest point End
(mag) Time Altitude Azimuth Time Altitude Azimuth Time Altitude Azimuth
Cosmos 2154 Rocket 4.2 16:51:19 10° N 16:57:34 84° W 17:03:49 10° S
CZ-4 R/B 1.5 16:55:47 10° SSE 16:59:54 59° ENE 17:04:01 10° N
Okean 3 3.7 16:56:02 10° S 17:00:20 76° W 17:04:37 10° N
Cosmos 1844 Rocket 2.7 16:57:31 10° S 17:03:00 64° ESE 17:08:34 10° NNE
COSMO-SKYMED 1 3.9 17:00:10 10° NE 17:03:25 20° E 17:06:38 10° SE
Cosmos 1544 Rocket 4.4 17:00:09 10° NNE 17:04:05 30° ENE 17:08:01 10° SE
Cosmos 158 Rocket 4.2 16:59:00 10° N 17:04:15 54° ENE 17:09:23 10° SSE
Cosmos 1975 Rocket 3.0 17:00:19 10° S 17:04:38 80° E 17:08:57 10° N
CZ-2C R/B 2.5 17:01:47 10° SSE 17:06:35 56° ENE 17:11:33 10° N
Cosmos 1048 Rocket 4.1 17:02:23 10° NNW 17:07:44 87° ENE 17:13:05 10° SSE
Cosmos 1238 Rocket 3.1 17:07:35 10° SSE 17:10:09 26° E 17:12:41 10° NNE
Cosmos 1844 3.8 17:07:50 10° S 17:13:16 57° ESE 17:18:42 10° NNE
CZ-3A R/B 3.7 17:09:40 10° W 17:13:50 45° NNW 17:32:07 10° NE
BREEZE-M DEB (TANK) 3.8 17:15:01 10° WNW 17:16:35 16° NNW 17:18:03 10° NNE
Cosmos 1975 4.2 17:14:50 10° NNE 17:17:50 19° ENE 17:20:47 10° ESE
CRYOSAT 2 4.3 17:13:12 10° N 17:18:08 80° E 17:23:01 10° S
AQUARIUS 4.1 17:14:07 10° SSE 17:18:35 75° ENE 17:23:05 10° N
MOS 1 4.3 17:13:33 10° SSE 17:19:12 82° ENE 17:24:53 10° NNW
Cosmos 1536 Rocket 4.2 17:17:10 10° SSE 17:21:12 35° E 17:25:16 10° NNE
CORIOLIS 4.1 17:16:17 10° SSE 17:21:40 70° ENE 17:27:03 10° N
SPOT 3 Rocket 3.6 17:19:57 10° SSE 17:25:08 89° E 17:30:21 10° NNW
SMAP 3.1 17:22:23 10° SSE 17:27:02 89° WSW 17:31:42 10° NNW
YAOGAN 1 2.5 17:24:10 10° SSE 17:28:30 88° ENE 17:32:50 10° NNW
Cosmos 2278 Rocket 2.5 17:25:39 10° S 17:31:01 48° ESE 17:36:26 10° NE
COSMOS 2406 3.4 17:29:32 10° NNW 17:35:16 77° WSW 17:40:59 10° SSE
SL-8 Rocket 4.0 17:29:57 10° N 17:36:09 89° E 17:42:18 10° S
ASTRO F (AKARI) 4.3 17:34:34 10° N 17:37:43 78° WNW 17:40:50 10° SSW
EP 2 4.1 17:37:37 10° SSW 17:40:14 65° ESE 17:41:24 28° NE
IDEFIX/ARIANE 42P 3.0 17:36:18 10° S 17:41:29 67° W 17:46:39 10° NNW
USA 32 4.3 17:36:43 10° S 17:41:55 73° W 17:47:09 10° N
Cosmos 1484 Rocket 2.7 17:41:52 10° SSE 17:45:34 55° ENE 17:49:14 10° N
Cosmos 2366 rocket 4.0 17:39:54 10° N 17:46:17 78° E 17:52:33 10° S
CZ-3B DEB 2.4 17:44:36 10° WSW 17:48:02 59° NW 17:55:17 13° NE
Cosmos 2218 Rocket 4.0 17:41:47 10° N 17:48:07 89° WSW 17:54:18 10° S
OTV 4 0.9 17:45:10 10° W 17:48:07 58° SSW 17:49:39 25° SE
Cosmos 921 Rocket 4.4 17:46:07 10° SE 17:48:30 19° ESE 17:48:30 19° ESE
SKYMED 2 3.5 17:47:19 10° NNE 17:51:40 75° E 17:55:59 10° S
Cosmos 1455 Rocket 3.0 17:49:28 10° N 17:53:53 88° E 17:58:18 10° S
Cosmos 2082 Rocket 3.4 17:54:09 10° N 17:57:45 22° NE 17:57:45 22° NE
Delta 2 Rocket 4.5 18:00:57 10° SW 18:04:30 31° SSE 18:05:40 27° SE
Cosmos 1833 Rocket 4.2 18:00:17 10° N 18:02:46 18° NNE 18:02:46 18° NNE
BREEZE-M DEB (TANK) 4.4 17:59:43 10° WNW 18:04:37 42° SW 18:08:05 10° SSE
NOSS 3-3 (A) 3.9 17:58:40 10° SSW 18:04:48 88° ESE 18:09:41 19° NNE
NOSS 3-3 (C) 3.9 17:58:46 10° SSW 18:04:54 87° SE 18:09:45 19° NNE
SL-8 R/B 3.7 18:02:13 10° WSW 18:06:59 74° NW 18:09:02 34° NE
Cosmos 494 Rocket 3.9 18:03:10 10° NNW 18:08:26 87° ENE 18:13:41 10° SSE
Okean 1 3.7 18:06:16 10° SSW 18:10:16 65° W 18:14:19 10° N
Cosmos 1809 Rocket 4.3 18:05:33 10° N 18:11:41 68° E 18:17:45 10° SSE
Cosmos 1500 3.0 18:09:19 10° N 18:13:09 73° E 18:16:58 10° SSE
Hubble Space Telescope 3.6 18:13:05 10° SW 18:14:33 12° SSW 18:16:00 10° S
NOAA 12 4.1 18:09:35 10° SSE 18:14:44 57° ENE 18:19:55 10° N
METEOR-M 4.3 18:10:27 10° SE 18:15:33 48° ENE 18:20:40 10° N
ATLAS 2AS CENTAUR R/B 3.0 18:08:19 10° NNW 18:16:23 89° WSW 18:23:51 10° SSE
Meteor 1-28 Rocket 3.1 18:15:04 38° NNE 18:16:27 85° ESE 18:20:15 10° S
Meteor 2-4 Rocket 4.3 18:14:09 10° SSE 18:18:00 32° ESE 18:18:00 32° ESE
ISS -0.8 18:19:38 10° WNW 18:21:30 14° NNW 18:21:48 14° NNW
Cosmos 1821 Rocket 4.2 18:15:57 10° N 18:21:43 43° ENE 18:27:27 10° SSE
Cosmos 2251 Rocket 4.1 18:16:44 10° NNW 18:22:00 59° WSW 18:27:11 10° S
Cosmos 1346 Rocket 3.3 18:27:23 10° SSW 18:31:15 56° W 18:32:45 33° NNW
Tiangong 1 3.1 18:32:41 10° SW 18:34:09 25° SW 18:34:09 25° SW
COSMO-SKYMED 1 4.4 18:35:47 10° N 18:39:34 30° WNW 18:43:20 10° SW
Nadezhda 3 Rocket 4.2 18:33:37 10° SSW 18:39:45 71° W 18:46:00 10° N
TIMED 4.5 18:35:40 10° SSW 18:39:43 77° SSW 18:39:43 77° SSW
GEOS 3 Rocket 4.0 18:39:33 10° SSE 18:44:35 61° WSW 18:49:40 10° NW
SL-24 R/B - RUBIN 2 4.5 18:40:18 10° SSW 18:46:30 80° WNW 18:48:47 44° NNE
ATLAS 3B CENTAUR R/B 3.4 18:43:22 10° WSW 18:58:15 49° S 19:00:11 40° SSE
Cosmos 2297 4.0 18:52:44 10° SSW 18:58:19 64° WNW 18:59:27 52° NNW
Cosmos 2278 Rocket 4.3 19:10:58 10° WSW 19:15:19 22° WNW 19:18:28 15° NNW
FALCON 9 R/B 2.9 19:10:35 10° W 19:26:28 77° SSW 19:26:28 77° SSW
Cosmos 2082 Rocket 4.0 19:37:25 10° NNW 19:39:41 24° NW 19:39:41 24° NW
